Weather History for Montreal Mirabel, QC

Change the Weather History Date:

Tuesday, February 25, 2014

  Actual Average Record
Temperature  
Mean Temperature 8 °F -  
Max Temperature 14 °F 25 °F 39 °F (1998)
Min Temperature 3 °F 9 °F -7 °F (1997)
Degree Days  
Heating Degree Days 56    
Moisture  
Dew Point -0 °F    
Average Humidity 66    
Maximum Humidity 73    
Minimum Humidity 62    
Precipitation  
Precipitation 0.00 in - - ()
Sea Level Pressure  
Sea Level Pressure 29.95 in    
Wind  
Wind Speed 5 mph ()    
Max Wind Speed 10 mph    
Max Gust Speed 17 mph    
Visibility 5.9 miles    
Events Snow    
Averages and records for this station are not official NWS values.
T = Trace of Precipitation, MM = Missing Value Source: Averaged Metar Reports

Daily Weather History Graph

Daily Weather History Graph

Search for Another Location

Airport:

Trip Planner

Search our weather history database for the weather conditions in past years. The results will help you decide how hot, cold, wet, or windy it might be!

Date:

Astronomy

Feb. 25, 2014 Rise Set
Actual Time 6:41 AM EST 5:37 PM EST
Civil Twilight 6:11 AM EST 6:07 PM EST
Nautical Twilight 5:37 AM EST 6:41 PM EST
Astronomical Twilight 5:03 AM EST 7:16 PM EST
Moon 3:43 AM EST (2/25) 1:31 PM EST (2/25)
Length of Visible Light 11h 55m
Length of Day
10h 55m
Waning Crescent, 18% of the Moon is Illuminated
Feb 25
Waning Crescent
Mar 1
New
Mar 8
First Quarter
Mar 16
Full
Mar 23
Last Quarter

Hourly Weather History & Observations

Time (EST) Temp. Windchill Dew Point Humidity Pressure Visibility Wind Dir Wind Speed Gust Speed Precip Events Conditions
12:00 AM 10.4 °F 4.0 °F -0.4 °F 62% 29.96 in 25.0 mi West 3.5 mph - N/A   Scattered Clouds
1:00 AM 10.4 °F 2.2 °F -0.4 °F 62% 29.99 in 25.0 mi West 4.6 mph - N/A   Mostly Cloudy
2:00 AM 10.4 °F -1.5 °F -0.4 °F 62% 29.99 in 25.0 mi WSW 8.1 mph - N/A   Mostly Cloudy
3:00 AM 6.8 °F -2.0 °F -0.4 °F 72% 29.98 in 25.0 mi West 4.6 mph - N/A   Partly Cloudy
4:00 AM 5.0 °F - -2.2 °F 72% 29.98 in 25.0 mi West 2.3 mph - N/A   Partly Cloudy
5:00 AM 5.0 °F -2.1 °F -4.0 °F 66% 29.98 in 25.0 mi WSW 3.5 mph - N/A   Partly Cloudy
6:00 AM 3.2 °F - -4.0 °F 72% 29.99 in 25.0 mi WNW 2.3 mph - N/A   Partly Cloudy
7:00 AM 3.2 °F -4.2 °F -4.0 °F 72% 29.99 in 35.0 mi West 3.5 mph - N/A   Mostly Cloudy
8:00 AM 5.0 °F - -2.2 °F 72% 29.99 in 45.0 mi Calm Calm - N/A   Mostly Cloudy
9:00 AM 6.8 °F -4.8 °F -2.2 °F 67% 29.98 in 45.0 mi SSW 6.9 mph - N/A   Mostly Cloudy
10:00 AM 8.6 °F -2.6 °F -2.2 °F 62% 29.97 in 5.0 mi WSW 6.9 mph - N/A Snow Light Snow Showers
11:00 AM 10.4 °F -1.5 °F -0.4 °F 62% 29.97 in 10.0 mi WSW 8.1 mph - N/A Snow Light Snow Showers
12:00 PM 12.2 °F 0.7 °F 1.4 °F 62% 29.95 in 4.0 mi West 8.1 mph - N/A Snow Light Snow Showers
12:30 PM 12.2 °F -0.2 °F 1.4 °F 62% 29.95 in 2.0 mi West 9.2 mph - N/A Snow Light Snow Showers
12:45 PM 12.2 °F 0.7 °F 3.2 °F 67% 29.94 in 3.0 mi West 8.1 mph - N/A Snow Light Snow Showers
1:00 PM 12.2 °F -0.2 °F 3.2 °F 67% 29.94 in 3.0 mi West 9.2 mph - N/A Snow Light Snow Showers
1:29 PM 12.2 °F -0.2 °F 5.0 °F 73% 29.94 in 1.0 mi WSW 9.2 mph - N/A Snow Light Snow Showers
1:44 PM 12.2 °F -0.2 °F 5.0 °F 73% 29.93 in 3.0 mi West 9.2 mph - N/A Snow Light Snow Showers
2:00 PM 12.2 °F -0.2 °F 3.2 °F 67% 29.92 in 3.0 mi West 9.2 mph - N/A Snow Light Snow Showers
3:00 PM 14.0 °F 2.9 °F 5.0 °F 67% 29.91 in 3.0 mi WSW 8.1 mph 17.3 mph N/A Snow Light Snow Showers
4:00 PM 14.0 °F 1.2 °F 3.2 °F 62% 29.91 in 15.0 mi West 10.4 mph - N/A Snow Light Snow Showers
5:00 PM 14.0 °F 2.9 °F 3.2 °F 62% 29.91 in 15.0 mi WSW 8.1 mph - N/A   Mostly Cloudy
6:00 PM 12.2 °F 2.9 °F 1.4 °F 62% 29.93 in 25.0 mi WSW 5.8 mph - N/A   Scattered Clouds
7:00 PM 10.4 °F 4.0 °F -0.4 °F 62% 29.94 in 25.0 mi West 3.5 mph - N/A   Scattered Clouds
8:00 PM 8.6 °F 0.1 °F -2.2 °F 62% 29.94 in 25.0 mi West 4.6 mph - N/A   Mostly Cloudy
9:00 PM 5.0 °F -5.6 °F -4.0 °F 66% 29.92 in 25.0 mi SSW 5.8 mph - N/A   Scattered Clouds
10:00 PM 8.6 °F - -2.2 °F 62% 29.91 in 25.0 mi WSW 2.3 mph - N/A   Mostly Cloudy
11:00 PM 5.0 °F -2.1 °F -2.2 °F 72% 29.90 in 25.0 mi SSW 3.5 mph - N/A   Mostly Cloudy
11:40 PM 5.0 °F - -2.2 °F 72% 29.89 in 10.0 mi SSW 2.3 mph - N/A Snow Light Snow Showers